START_TIME,STEP,MOV.,M29,t_acc.,H22,t_acc.,H26,t_acc.,H30,t_acc.
1979-07-15 18:00:32.110 ,1,1,0.,24.0,0.,24.0,0.,24.0,0.,24.0
1979-07-15 18:00:56.110 ,2,1,0.,24.0,0.,24.0,0.,24.0,0.,24.0
1979-07-15 18:01:20.110 ,6,1,0.,24.0,0.,24.0,0.,24.0,0.,24.0
1979-07-15 18:01:44.110 ,5,1,0.,24.0,0.,24.0,0.,24.0,0.,24.0
1979-07-15 18:02:08.110 ,1,1,0.,24.0,0.,24.0,0.,24.0,0.,24.0
1979-07-15 18:02:32.110 ,2,1,0.,24.0,0.,24.0,0.,24.0,0.,24.0
1979-07-15 18:02:56.110 ,6,1,0.,24.0,0.,24.0,0.,24.0,0.,24.0
1979-07-15 18:03:20.110 ,5,1,0.,24.0,0.,24.0,0.,24.0,0.,24.0
1979-07-15 18:03:44.110 ,1,1,0.,24.0,0.,24.0,0.,24.0,0.,24.0
1979-07-15 18:04:08.110 ,2,1,0.,24.0,0.,24.0,0.,24.0,0.,24.0
1979-07-15 18:04:32.110 ,6,1,0.,24.0,0.,24.0,0.,24.0,0.,24.0
1979-07-15 18:04:56.110 ,5,1,0.,24.0,0.,24.0,0.,24.0,0.,24.0
1979-07-15 18:05:20.110 ,1,1,0.,24.0,0.,24.0,0.,24.0,0.,24.0
1979-07-15 18:06:08.110 ,0,0,0.,24.0,0.,24.0,0.,24.0,0.,24.0
1979-07-15 18:06:32.110 ,5,1,0.,24.0,0.,24.0,0.,24.0,0.,24.0
1979-07-15 18:06:56.110 ,5,0,0.,24.0,0.,24.0,0.,24.0,0.,24.0
1979-07-15 18:07:20.110 ,4,1,0.,24.0,0.,24.0,0.,24.0,0.,24.0
1979-07-15 18:07:44.110 ,4,0,0.,24.0,0.,24.0,0.,24.0,0.,24.0
1979-07-15 18:08:08.110 ,3,1,0.,24.0,0.,24.0,0.,24.0,0.,24.0
1979-07-15 18:08:32.110 ,3,0,0.,24.0,0.,24.0,0.,24.0,0.,24.0
1979-07-15 18:08:56.110 ,2,1,0.,24.0,0.,24.0,0.,24.0,0.,24.0
1979-07-15 18:09:20.110 ,2,0,0.,24.0,0.,24.0,0.,24.0,0.,24.0
1979-07-15 18:09:44.110 ,1,1,0.,24.0,0.,24.0,0.,24.0,0.,24.0
1979-07-15 18:10:08.110 ,0,0,0.,24.0,0.,24.0,0.,24.0,0.,24.0
1979-07-15 18:11:03.910 ,0,0,0.,24.0,0.,24.0,0.,24.0,0.,24.0
1979-07-15 18:11:20.110 ,0,1,0.,24.0,0.,24.0,0.,24.0,0.,24.0
1979-07-15 18:11:44.110 ,0,0,0.,24.0,0.,24.0,0.,24.0,0.,24.0
1979-07-15 18:12:08.110 ,1,1,0.,24.0,0.,24.0,0.,24.0,0.,24.0
1979-07-15 18:12:32.110 ,1,0,0.,24.0,0.,24.0,0.,24.0,0.,24.0
1979-07-15 18:12:56.110 ,2,1,0.,24.0,0.,24.0,0.,24.0,0.,24.0
1979-07-15 18:13:20.110 ,2,0,0.,24.0,0.,24.0,0.,24.0,0.,24.0
1979-07-15 18:13:44.110 ,3,1,0.,24.0,0.,24.0,0.,24.0,0.,24.0
1979-07-15 18:14:08.110 ,3,0,0.,24.0,0.,24.0,0.,24.0,0.,24.0
1979-07-15 18:14:32.110 ,4,1,0.,24.0,0.,24.0,0.,24.0,0.,24.0
1979-07-15 18:14:56.110 ,4,0,0.,24.0,0.,24.0,0.,24.0,0.,24.0
1979-07-15 18:15:20.110 ,5,1,0.,24.0,0.,24.0,0.,24.0,0.,24.0
1979-07-15 18:15:44.110 ,5,0,0.,24.0,0.,24.0,0.,24.0,0.,24.0
1979-07-15 18:16:08.110 ,6,1,0.,24.0,0.,24.0,0.,24.0,0.,24.0
1979-07-15 18:16:56.110 ,7,1,0.,24.0,0.,24.0,0.,24.0,0.,24.0
1979-07-15 18:17:20.110 ,7,0,0.,24.0,0.,24.0,0.,24.0,0.,24.0
1979-07-15 18:17:44.110 ,7,1,0.,24.0,0.,24.0,0.,24.0,0.,24.0
1979-07-15 18:18:08.110 ,7,0,0.,24.0,0.,24.0,0.,24.0,0.,24.0
1979-07-15 18:18:32.110 ,6,1,0.,24.0,0.,24.0,0.,24.0,0.,24.0
1979-07-15 18:18:56.110 ,6,0,0.,24.0,0.,24.0,0.,24.0,0.,24.0
1979-07-15 18:19:20.110 ,5,1,0.,24.0,0.,24.0,0.,24.0,0.,24.0
1979-07-15 18:19:44.110 ,5,0,0.,24.0,0.,24.0,0.,24.0,0.,24.0
1979-07-15 18:20:08.110 ,4,1,0.,24.0,0.,24.0,0.,24.0,0.,24.0
1979-07-15 18:20:32.110 ,4,0,0.,24.0,0.,24.0,0.,24.0,0.,24.0
1979-07-15 18:20:56.110 ,3,1,0.,24.0,0.,24.0,0.,24.0,0.,24.0
1979-07-15 18:21:20.110 ,3,0,0.,24.0,0.,24.0,0.,24.0,0.,24.0
1979-07-15 18:21:44.110 ,2,1,0.,24.0,0.,24.0,0.,24.0,0.,24.0
1979-07-15 18:22:08.110 ,2,0,0.,24.0,0.,24.0,0.,24.0,0.,24.0
1979-07-15 18:22:32.110 ,1,1,0.,24.0,0.,24.0,0.,24.0,0.,24.0
1979-07-15 18:22:56.110 ,1,0,0.,24.0,0.,24.0,0.,24.0,0.,24.0
1979-07-15 18:24:08.110 ,0,1,0.,24.0,0.,24.0,0.,24.0,0.,24.0
1979-07-15 18:24:32.110 ,0,0,0.,24.0,0.,24.0,0.,24.0,0.,24.0
1979-07-15 18:24:56.110 ,1,1,0.,24.0,0.,24.0,0.,24.0,0.,24.0
1979-07-15 18:25:20.110 ,1,0,0.,24.0,0.,24.0,0.,24.0,0.,24.0
1979-07-15 18:25:44.110 ,2,1,0.,24.0,0.,24.0,0.,24.0,0.,24.0
1979-07-15 18:26:08.110 ,2,0,0.,24.0,0.,24.0,0.,24.0,0.,24.0
1979-07-15 18:26:32.110 ,3,1,0.,24.0,0.,24.0,0.,24.0,0.,24.0
1979-07-15 18:26:56.110 ,3,0,0.,24.0,0.,24.0,0.,24.0,0.,24.0
1979-07-15 18:27:20.110 ,4,1,0.,24.0,0.,24.0,0.,24.0,0.,24.0
1979-07-15 18:27:44.110 ,4,0,0.,24.0,0.,24.0,0.,24.0,0.,24.0
1979-07-15 18:28:08.110 ,5,1,0.,24.0,0.,24.0,0.,24.0,0.,24.0
1979-07-15 18:28:32.110 ,5,0,0.,24.0,0.,24.0,0.,24.0,0.,24.0
1979-07-15 18:28:56.110 ,6,1,0.,24.0,0.,24.0,0.,24.0,0.,24.0
1979-07-15 18:29:20.110 ,6,0,0.,24.0,0.,24.0,0.,24.0,0.,24.0
1979-07-15 18:29:44.110 ,7,1,0.,24.0,0.,24.0,0.,24.0,0.,24.0
1979-07-15 18:30:08.110 ,7,0,0.,24.0,0.,24.0,0.,24.0,0.,24.0
1979-07-15 18:30:32.110 ,7,1,0.,24.0,0.,24.0,0.,24.0,0.,24.0
1979-07-15 18:30:56.110 ,7,0,0.,24.0,0.,24.0,0.,24.0,0.,24.0
1979-07-15 18:31:20.110 ,6,1,0.,24.0,0.,24.0,0.,24.0,0.,24.0
1979-07-15 18:31:44.110 ,6,0,0.,24.0,0.,24.0,0.,24.0,0.,24.0
1979-07-15 18:32:08.110 ,5,1,0.,24.0,0.,24.0,0.,24.0,0.,24.0
1979-07-15 18:32:32.110 ,5,0,0.,24.0,0.,24.0,0.,24.0,0.,24.0
1979-07-15 18:32:56.110 ,4,1,0.,24.0,0.,24.0,0.,24.0,0.,24.0
1979-07-15 18:33:20.110 ,4,0,0.,24.0,0.,24.0,0.,24.0,0.,24.0
1979-07-15 18:33:44.110 ,3,1,0.,24.0,0.,24.0,0.,24.0,0.,24.0
1979-07-15 18:34:08.110 ,3,0,0.,24.0,0.,24.0,0.,24.0,0.,24.0
1979-07-15 18:34:32.110 ,2,1,0.,24.0,0.,24.0,0.,24.0,0.,24.0
1979-07-15 18:34:56.110 ,2,0,0.,24.0,0.,24.0,0.,24.0,0.,24.0
1979-07-15 18:35:20.110 ,1,1,0.,24.0,0.,24.0,0.,24.0,0.,24.0
1979-07-15 18:35:44.110 ,1,0,0.,24.0,0.,24.0,0.,24.0,0.,24.0
1979-07-15 18:36:08.110 ,0,1,0.,24.0,0.,24.0,0.,24.0,0.,24.0
1979-07-15 18:36:32.110 ,0,0,0.,24.0,0.,24.0,0.,24.0,0.,24.0
1979-07-15 18:36:56.110 ,0,1,0.,24.0,0.,24.0,0.,24.0,0.,24.0
1979-07-15 18:37:20.110 ,0,0,0.,24.0,0.,24.0,0.,24.0,0.,24.0
1979-07-15 18:37:44.110 ,1,1,0.,24.0,0.,24.0,0.,24.0,0.,24.0
1979-07-15 18:38:08.110 ,1,0,0.,24.0,0.,24.0,0.,24.0,0.,24.0
1979-07-15 18:38:32.110 ,2,1,0.,24.0,0.,24.0,0.,24.0,0.,24.0
1979-07-15 18:38:56.110 ,2,0,0.,24.0,0.,24.0,0.,24.0,0.,24.0
1979-07-15 18:39:20.110 ,3,1,0.,24.0,0.,24.0,0.,24.0,0.,24.0
1979-07-15 18:39:44.110 ,3,0,0.,24.0,0.,24.0,0.,24.0,0.,24.0
1979-07-15 18:40:08.110 ,4,1,0.,24.0,0.,24.0,0.,24.0,0.,24.0
1979-07-15 18:40:32.110 ,4,0,0.,24.0,0.,24.0,0.,24.0,0.,24.0
1979-07-15 18:40:56.110 ,5,1,0.,24.0,0.,24.0,0.,24.0,0.,24.0
1979-07-15 18:41:20.110 ,5,0,0.,24.0,0.,24.0,0.,24.0,0.,24.0
1979-07-15 18:41:44.110 ,6,1,0.,24.0,0.,24.0,0.,24.0,0.,24.0
1979-07-15 18:42:08.110 ,6,0,0.,24.0,0.,24.0,0.,24.0,0.,24.0
1979-07-15 18:42:32.110 ,7,0,0.,24.0,0.,24.0,0.,24.0,0.,24.0
1979-07-15 18:42:56.110 ,7,0,0.,24.0,0.,24.0,0.,24.0,0.,24.0
1979-07-15 18:43:20.110 ,5,1,0.,24.0,0.,24.0,0.,24.0,0.,24.0
1979-07-15 18:43:44.110 ,1,1,0.,24.0,0.,24.0,0.,24.0,0.,24.0
1979-07-15 18:44:08.110 ,2,1,0.,24.0,0.,24.0,0.,24.0,0.,24.0
1979-07-15 18:44:32.110 ,6,1,0.,24.0,0.,24.0,0.,24.0,0.,24.0
1979-07-15 18:44:56.110 ,5,1,0.,24.0,0.,24.0,0.,24.0,0.,24.0
1979-07-15 18:45:20.110 ,1,1,0.,24.0,0.,24.0,0.,24.0,0.,24.0
1979-07-15 18:45:44.110 ,2,1,0.,24.0,0.,24.0,0.,24.0,0.,24.0
1979-07-15 18:46:32.110 ,5,1,0.,24.0,0.,24.0,0.,24.0,0.,24.0
1979-07-15 18:46:56.110 ,1,1,0.,24.0,0.,24.0,0.,24.0,0.,24.0
1979-07-15 18:47:20.110 ,2,1,0.,24.0,0.,24.0,0.,24.0,0.,24.0
1979-07-15 18:47:44.110 ,6,1,0.,24.0,0.,24.0,0.,24.0,0.,24.0
1979-07-15 18:48:08.110 ,5,1,0.,24.0,0.,24.0,0.,24.0,0.,24.0
1979-07-15 18:48:32.110 ,1,1,0.,24.0,0.,24.0,0.,24.0,0.,24.0
1979-07-15 18:48:56.110 ,2,1,0.,24.0,0.,24.0,0.,24.0,0.,24.0
1979-07-15 18:49:20.110 ,6,1,0.,24.0,0.,24.0,0.,24.0,0.,24.0
1979-07-15 18:49:44.110 ,5,1,0.,24.0,0.,24.0,0.,24.0,0.,24.0
1979-07-15 18:50:08.110 ,1,1,0.,24.0,0.,24.0,0.,24.0,0.,24.0
1979-07-15 18:50:32.110 ,2,1,0.,24.0,0.,24.0,0.,24.0,0.,24.0
1979-07-15 18:50:56.110 ,6,1,0.,24.0,0.,24.0,0.,24.0,0.,24.0
1979-07-15 18:51:20.110 ,5,1,0.,24.0,0.,24.0,0.,24.0,0.,24.0
1979-07-15 18:52:08.110 ,2,1,0.,24.0,0.,24.0,0.,24.0,0.,24.0
1979-07-15 18:52:32.110 ,6,1,0.,24.0,0.,24.0,0.,24.0,0.,24.0
1979-07-15 18:52:56.110 ,5,1,0.,24.0,0.,24.0,0.,24.0,0.,24.0
1979-07-15 18:53:20.110 ,1,1,0.,24.0,0.,24.0,0.,24.0,0.,24.0
1979-07-15 18:53:44.110 ,0,0,0.,24.0,0.,24.0,0.,24.0,0.,24.0
1979-07-15 18:54:08.110 ,0,0,0.,24.0,0.,24.0,0.,24.0,0.,24.0
1979-07-15 18:54:32.110 ,5,1,0.,24.0,0.,24.0,0.,24.0,0.,24.0
1979-07-15 18:54:56.110 ,5,0,0.,24.0,0.,24.0,0.,24.0,0.,24.0
1979-07-15 18:55:20.110 ,4,1,0.,24.0,0.,24.0,0.,24.0,0.,24.0
1979-07-15 18:55:44.110 ,4,0,0.,24.0,0.,24.0,0.,24.0,0.,24.0
1979-07-15 18:56:08.110 ,3,1,0.,24.0,0.,24.0,0.,24.0,0.,24.0
1979-07-15 18:56:32.110 ,3,0,0.,24.0,0.,24.0,0.,24.0,0.,24.0
1979-07-15 18:56:56.110 ,2,1,0.,24.0,0.,24.0,0.,24.0,0.,24.0
1979-07-15 18:57:20.110 ,2,0,0.,24.0,0.,24.0,0.,24.0,0.,24.0
1979-07-15 18:57:44.110 ,1,1,0.,24.0,0.,24.0,0.,24.0,0.,24.0
1979-07-15 18:58:08.110 ,1,0,0.,24.0,0.,24.0,0.,24.0,0.,24.0
1979-07-15 18:58:32.110 ,0,1,0.,24.0,0.,24.0,0.,24.0,0.,24.0
1979-07-15 18:58:56.110 ,0,0,0.,24.0,0.,24.0,0.,24.0,0.,24.0
1979-07-15 18:59:20.110 ,0,1,0.,24.0,0.,24.0,0.,24.0,0.,24.0
1979-07-15 18:59:44.110 ,0,0,0.,24.0,0.,24.0,0.,24.0,0.,24.0
1979-07-15 19:00:08.110 ,1,1,0.,24.0,0.,24.0,0.,24.0,0.,24.0
1979-07-15 19:00:32.110 ,1,0,0.,24.0,0.,24.0,0.,24.0,0.,24.0
1979-07-15 19:01:20.110 ,2,0,0.,24.0,0.,24.0,0.,24.0,0.,24.0
1979-07-15 19:01:44.110 ,3,1,0.,24.0,0.,24.0,0.,24.0,0.,24.0
1979-07-15 19:02:08.110 ,3,0,0.,24.0,0.,24.0,0.,24.0,0.,24.0
1979-07-15 19:02:32.110 ,4,1,0.,24.0,0.,24.0,0.,24.0,0.,24.0
1979-07-15 19:02:56.110 ,4,0,0.,24.0,0.,24.0,0.,24.0,0.,24.0
1979-07-15 19:03:20.110 ,5,1,0.,24.0,0.,24.0,0.,24.0,0.,24.0
1979-07-15 19:03:44.110 ,5,0,0.,24.0,0.,24.0,0.,24.0,0.,24.0
1979-07-15 19:04:08.110 ,6,1,0.,24.0,0.,24.0,0.,24.0,0.,24.0
1979-07-15 19:04:32.110 ,6,0,0.,24.0,0.,24.0,0.,24.0,0.,24.0
1979-07-15 19:04:56.110 ,7,1,0.,24.0,0.,24.0,0.,24.0,0.,24.0
1979-07-15 19:05:20.110 ,7,0,0.,24.0,0.,24.0,0.,24.0,0.,24.0
1979-07-15 19:05:44.110 ,7,1,0.,24.0,0.,24.0,0.,24.0,0.,24.0
1979-07-15 19:06:08.110 ,7,0,0.,24.0,0.,24.0,0.,24.0,0.,24.0
1979-07-15 19:06:32.110 ,6,1,0.,24.0,0.,24.0,0.,24.0,0.,24.0
1979-07-15 19:06:56.110 ,6,0,0.,24.0,0.,24.0,0.,24.0,0.,24.0
1979-07-15 19:07:20.110 ,5,1,0.,24.0,0.,24.0,0.,24.0,0.,24.0
1979-07-15 19:07:44.110 ,5,0,0.,24.0,0.,24.0,0.,24.0,0.,24.0
1979-07-15 19:08:08.110 ,4,1,0.,24.0,0.,24.0,0.,24.0,0.,24.0
1979-07-15 19:08:32.110 ,4,0,0.,24.0,0.,24.0,0.,24.0,0.,24.0
1979-07-15 19:08:56.110 ,3,1,0.,24.0,0.,24.0,0.,24.0,0.,24.0
1979-07-15 19:09:44.110 ,2,1,0.,24.0,0.,24.0,0.,24.0,0.,24.0
1979-07-15 19:10:08.110 ,2,0,0.,24.0,0.,24.0,0.,24.0,0.,24.0
1979-07-15 19:10:32.110 ,1,1,0.,24.0,0.,24.0,0.,24.0,0.,24.0
1979-07-15 19:10:56.110 ,1,0,0.,24.0,0.,24.0,0.,24.0,0.,24.0
1979-07-15 19:11:20.110 ,0,1,0.,24.0,0.,24.0,0.,24.0,0.,24.0
1979-07-15 19:11:44.110 ,0,0,0.,24.0,0.,24.0,0.,24.0,0.,24.0
1979-07-15 19:12:08.110 ,0,1,0.,24.0,0.,24.0,0.,24.0,0.,24.0
1979-07-15 19:12:32.110 ,0,0,0.,24.0,0.,24.0,0.,24.0,0.,24.0
1979-07-15 19:12:56.110 ,1,1,0.,24.0,0.,24.0,0.,24.0,0.,24.0
1979-07-15 19:13:20.110 ,1,0,0.,24.0,0.,24.0,0.,24.0,0.,24.0
1979-07-15 19:13:44.110 ,2,1,0.,24.0,0.,24.0,0.,24.0,0.,24.0
1979-07-15 19:14:08.110 ,2,0,0.,24.0,0.,24.0,0.,24.0,0.,24.0
1979-07-15 19:14:32.110 ,3,1,0.,24.0,0.,24.0,0.,24.0,0.,24.0
1979-07-15 19:14:56.110 ,3,0,0.,24.0,0.,24.0,0.,24.0,0.,24.0
1979-07-15 19:15:20.110 ,4,1,0.,24.0,0.,24.0,0.,24.0,0.,24.0
1979-07-15 19:15:44.110 ,4,0,0.,24.0,0.,24.0,0.,24.0,0.,24.0
1979-07-15 19:16:08.110 ,5,1,0.,24.0,0.,24.0,0.,24.0,0.,24.0
1979-07-15 19:16:32.110 ,5,0,0.,24.0,0.,24.0,0.,24.0,0.,24.0
1979-07-15 19:16:56.110 ,6,1,0.,24.0,0.,24.0,0.,24.0,0.,24.0
1979-07-15 19:17:20.110 ,6,0,0.,24.0,0.,24.0,0.,24.0,0.,24.0
1979-07-15 19:17:44.110 ,7,1,0.,24.0,0.,24.0,0.,24.0,0.,24.0
1979-07-15 19:18:08.110 ,7,0,0.,24.0,0.,24.0,0.,24.0,0.,24.0
1979-07-15 19:18:32.110 ,7,1,0.,24.0,0.,24.0,0.,24.0,0.,24.0
1979-07-15 19:18:56.110 ,7,0,0.,24.0,0.,24.0,0.,24.0,0.,24.0
1979-07-15 19:19:20.110 ,0,0,0.,24.0,0.,24.0,0.,24.0,0.,24.0
1979-07-15 19:19:44.110 ,0,0,,0,,0,,0,,0
1979-07-15 19:19:44.110 ,6,0,0.,24.0,0.,24.0,0.,24.0,0.,24.0
1979-07-15 19:20:08.110 ,5,1,0.,24.0,0.,24.0,0.,24.0,0.,24.0
1979-07-15 19:20:32.110 ,5,0,0.,24.0,0.,24.0,0.,24.0,0.,24.0
1979-07-15 19:20:56.110 ,4,1,0.,24.0,0.,24.0,0.,24.0,0.,24.0
1979-07-15 19:21:20.110 ,4,0,0.,24.0,0.,24.0,0.,24.0,0.,24.0
1979-07-15 19:21:44.110 ,3,1,0.,24.0,0.,24.0,0.,24.0,0.,24.0
1979-07-15 19:22:08.110 ,3,0,0.,24.0,0.,24.0,0.,24.0,0.,24.0
1979-07-15 19:22:32.110 ,2,1,0.,24.0,0.,24.0,0.,24.0,0.,24.0
1979-07-15 19:22:56.110 ,2,0,0.,24.0,0.,24.0,0.,24.0,0.,24.0
1979-07-15 19:23:20.110 ,1,1,0.,24.0,0.,24.0,0.,24.0,0.,24.0
1979-07-15 19:23:44.110 ,1,0,0.,24.0,0.,24.0,0.,24.0,0.,24.0
1979-07-15 19:24:32.110 ,0,0,0.,24.0,0.,24.0,0.,24.0,0.,24.0
1979-07-15 19:24:56.110 ,0,1,0.,24.0,0.,24.0,0.,24.0,0.,24.0
1979-07-15 19:25:20.110 ,0,0,0.,24.0,0.,24.0,0.,24.0,0.,24.0
1979-07-15 19:25:44.110 ,1,1,0.,24.0,0.,24.0,0.,24.0,0.,24.0
1979-07-15 19:26:08.110 ,1,0,0.,24.0,0.,24.0,0.,24.0,0.,24.0
1979-07-15 19:26:32.110 ,2,1,0.,24.0,0.,24.0,0.,24.0,0.,24.0
1979-07-15 19:26:56.110 ,2,0,0.,24.0,0.,24.0,0.,24.0,0.,24.0
1979-07-15 19:27:20.110 ,3,1,0.,24.0,0.,24.0,0.,24.0,0.,24.0
1979-07-15 19:27:44.110 ,3,0,0.,24.0,0.,24.0,0.,24.0,0.,24.0
1979-07-15 19:28:08.110 ,4,1,0.,24.0,0.,24.0,0.,24.0,0.,24.0
1979-07-15 19:28:32.110 ,4,0,0.,24.0,0.,24.0,0.,24.0,0.,24.0
1979-07-15 19:28:56.110 ,5,1,0.,24.0,0.,24.0,0.,24.0,0.,24.0
1979-07-15 19:29:20.110 ,5,0,0.,24.0,0.,24.0,0.,24.0,0.,24.0
1979-07-15 19:29:44.110 ,6,1,0.,24.0,0.,24.0,0.,24.0,0.,24.0
1979-07-15 19:30:08.110 ,6,0,0.,24.0,0.,24.0,0.,24.0,0.,24.0
1979-07-15 19:30:32.110 ,7,0,0.,24.0,0.,24.0,0.,24.0,0.,24.0
1979-07-15 19:30:56.110 ,7,0,0.,24.0,0.,24.0,0.,24.0,0.,24.0
1979-07-15 19:31:20.110 ,5,1,0.,24.0,0.,24.0,0.,24.0,0.,24.0
1979-07-15 19:31:44.110 ,1,1,0.,24.0,0.,24.0,0.,24.0,0.,24.0
1979-07-15 19:32:08.100 ,2,1,0.,24.0,0.,24.0,0.,24.0,0.,24.0
1979-07-15 19:32:32.100 ,6,1,0.,24.0,0.,24.0,0.,24.0,0.,24.0
1979-07-15 19:32:56.100 ,5,1,0.,24.0,0.,24.0,0.,24.0,0.,24.0
1979-07-15 19:33:20.100 ,1,1,0.,24.0,0.,24.0,0.,24.0,0.,24.0
1979-07-15 19:33:44.100 ,2,1,0.,24.0,0.,24.0,0.,24.0,0.,24.0
1979-07-15 19:34:08.100 ,6,1,0.,24.0,0.,24.0,0.,24.0,0.,24.0
1979-07-15 19:34:32.100 ,5,1,0.,24.0,0.,24.0,0.,24.0,0.,24.0
1979-07-15 19:34:56.100 ,1,1,0.,24.0,0.,24.0,0.,24.0,0.,24.0
1979-07-15 19:35:20.100 ,2,1,0.,24.0,0.,24.0,0.,24.0,0.,24.0
1979-07-15 19:35:44.100 ,6,1,0.,24.0,0.,24.0,0.,24.0,0.,24.0
1979-07-15 19:36:08.100 ,5,1,0.,24.0,0.,24.0,0.,24.0,0.,24.0
1979-07-15 19:36:32.100 ,1,1,0.,24.0,0.,24.0,0.,24.0,0.,24.0
1979-07-15 19:36:56.100 ,2,1,0.,24.0,0.,24.0,0.,24.0,0.,24.0
1979-07-15 19:37:20.100 ,6,1,0.,24.0,0.,24.0,0.,24.0,0.,24.0
1979-07-15 19:37:44.100 ,5,1,0.,24.0,0.,24.0,0.,24.0,0.,24.0
1979-07-15 19:38:08.100 ,1,1,0.,24.0,0.,24.0,0.,24.0,0.,24.0
1979-07-15 19:38:32.100 ,2,1,0.,24.0,0.,24.0,0.,24.0,0.,24.0
1979-07-15 19:38:56.100 ,6,1,0.,24.0,0.,24.0,0.,24.0,0.,24.0
1979-07-15 19:39:20.100 ,5,1,0.,24.0,0.,24.0,0.,24.0,0.,24.0
1979-07-15 19:39:44.100 ,1,1,0.,24.0,0.,24.0,0.,24.0,0.,24.0
1979-07-15 19:40:08.100 ,2,1,0.,24.0,0.,24.0,0.,24.0,0.,24.0
1979-07-15 19:40:32.100 ,6,1,0.,24.0,0.,24.0,0.,24.0,0.,24.0
1979-07-15 19:40:56.100 ,5,1,0.,24.0,0.,24.0,0.,24.0,0.,24.0
1979-07-15 19:41:20.100 ,1,1,0.,24.0,0.,24.0,0.,24.0,0.,24.0
1979-07-15 19:41:44.100 ,0,0,0.,24.0,0.,24.0,0.,24.0,0.,24.0
1979-07-15 19:42:08.100 ,0,0,0.,24.0,0.,24.0,0.,24.0,0.,24.0
1979-07-15 19:42:32.100 ,5,1,0.,24.0,0.,24.0,0.,24.0,0.,24.0
1979-07-15 19:42:56.100 ,5,0,0.,24.0,0.,24.0,0.,24.0,0.,24.0
1979-07-15 19:43:20.100 ,4,1,0.,24.0,0.,24.0,0.,24.0,0.,24.0
1979-07-15 19:43:44.100 ,4,0,0.,24.0,0.,24.0,0.,24.0,0.,24.0
1979-07-15 19:44:08.100 ,3,1,0.,24.0,0.,24.0,0.,24.0,0.,24.0
1979-07-15 19:44:32.100 ,3,0,0.,24.0,0.,24.0,0.,24.0,0.,24.0
1979-07-15 19:44:56.100 ,2,1,0.,24.0,0.,24.0,0.,24.0,0.,24.0
1979-07-15 19:45:20.100 ,2,0,0.,24.0,0.,24.0,0.,24.0,0.,24.0
1979-07-15 19:45:44.100 ,1,1,0.,24.0,0.,24.0,0.,24.0,0.,24.0
1979-07-15 19:46:08.100 ,1,0,0.,24.0,0.,24.0,0.,24.0,0.,24.0
1979-07-15 19:46:32.100 ,0,1,0.,24.0,0.,24.0,0.,24.0,0.,24.0
1979-07-15 19:46:56.100 ,0,0,0.,24.0,0.,24.0,0.,24.0,0.,24.0
1979-07-15 19:47:20.100 ,0,1,0.,24.0,0.,24.0,0.,24.0,0.,24.0
1979-07-15 19:47:44.100 ,0,0,0.,24.0,0.,24.0,0.,24.0,0.,24.0
1979-07-15 19:48:08.100 ,1,1,0.,24.0,0.,24.0,0.,24.0,0.,24.0
1979-07-15 19:48:32.100 ,1,0,0.,24.0,0.,24.0,0.,24.0,0.,24.0
1979-07-15 19:48:56.100 ,2,1,0.,24.0,0.,24.0,0.,24.0,0.,24.0
1979-07-15 19:49:20.100 ,2,0,0.,24.0,0.,24.0,0.,24.0,0.,24.0
1979-07-15 19:49:44.100 ,3,1,0.,24.0,0.,24.0,0.,24.0,0.,24.0
1979-07-15 19:50:08.100 ,3,0,0.,24.0,0.,24.0,0.,24.0,0.,24.0
1979-07-15 19:50:32.100 ,4,1,0.,24.0,0.,24.0,0.,24.0,0.,24.0
1979-07-15 19:50:56.100 ,4,0,0.,24.0,0.,24.0,0.,24.0,0.,24.0
1979-07-15 19:51:20.100 ,5,1,0.,24.0,0.,24.0,0.,24.0,0.,24.0
1979-07-15 19:51:44.100 ,5,0,0.,24.0,0.,24.0,0.,24.0,0.,24.0
1979-07-15 19:52:08.100 ,6,1,0.,24.0,0.,24.0,0.,24.0,0.,24.0
1979-07-15 19:52:32.100 ,6,0,0.,24.0,0.,24.0,0.,24.0,0.,24.0
1979-07-15 19:52:56.100 ,7,1,0.,24.0,0.,24.0,0.,24.0,0.,24.0
1979-07-15 19:53:20.100 ,7,0,0.,24.0,0.,24.0,0.,24.0,0.,24.0
1979-07-15 19:53:44.100 ,7,1,0.,24.0,0.,24.0,0.,24.0,0.,24.0
1979-07-15 19:54:08.100 ,7,0,0.,24.0,0.,24.0,0.,24.0,0.,24.0
1979-07-15 19:54:32.100 ,6,1,0.,24.0,0.,24.0,0.,24.0,0.,24.0
1979-07-15 19:54:56.100 ,6,0,0.,24.0,0.,24.0,0.,24.0,0.,24.0
1979-07-15 19:55:20.100 ,5,1,0.,24.0,0.,24.0,0.,24.0,0.,24.0
1979-07-15 19:55:44.100 ,5,0,0.,24.0,0.,24.0,0.,24.0,0.,24.0
1979-07-15 19:56:08.100 ,4,1,0.,24.0,0.,24.0,0.,24.0,0.,24.0
1979-07-15 19:56:32.100 ,4,0,0.,24.0,0.,24.0,0.,24.0,0.,24.0
1979-07-15 19:56:56.100 ,3,1,0.,24.0,0.,24.0,0.,24.0,0.,24.0
1979-07-15 19:57:20.100 ,3,0,0.,24.0,0.,24.0,0.,24.0,0.,24.0
1979-07-15 19:57:44.100 ,2,1,0.,24.0,0.,24.0,0.,24.0,0.,24.0
1979-07-15 19:58:08.100 ,2,0,0.,24.0,0.,24.0,0.,24.0,0.,24.0
1979-07-15 19:58:32.100 ,1,1,0.,24.0,0.,24.0,0.,24.0,0.,24.0
1979-07-15 19:58:56.100 ,1,0,0.,24.0,0.,24.0,0.,24.0,0.,24.0
1979-07-15 19:59:44.100 ,0,0,0.,24.0,0.,24.0,0.,24.0,0.,24.0
1979-07-15 20:00:08.100 ,0,1,0.,24.0,0.,24.0,0.,24.0,0.,24.0
1979-07-15 20:00:32.100 ,0,0,0.,24.0,0.,24.0,0.,24.0,0.,24.0
1979-07-15 20:00:56.100 ,1,1,0.,24.0,0.,24.0,0.,24.0,0.,24.0
1979-07-15 20:01:20.100 ,1,0,0.,24.0,0.,24.0,0.,24.0,0.,24.0
1979-07-15 20:01:44.100 ,2,1,0.,24.0,0.,24.0,0.,24.0,0.,24.0
1979-07-15 20:02:08.100 ,2,0,0.,24.0,0.,24.0,0.,24.0,0.,24.0
1979-07-15 20:02:32.100 ,3,1,0.,24.0,0.,24.0,0.,24.0,0.,24.0
1979-07-15 20:02:56.100 ,3,0,0.,24.0,0.,24.0,0.,24.0,0.,24.0
1979-07-15 20:03:20.100 ,4,1,0.,24.0,0.,24.0,0.,24.0,0.,24.0
1979-07-15 20:03:44.100 ,4,0,0.,24.0,0.,24.0,0.,24.0,0.,24.0
1979-07-15 20:04:08.100 ,5,1,0.,24.0,0.,24.0,0.,24.0,0.,24.0
1979-07-15 20:04:32.100 ,5,0,0.,24.0,0.,24.0,0.,24.0,0.,24.0
1979-07-15 20:04:56.100 ,6,1,0.,24.0,0.,24.0,0.,24.0,0.,24.0
1979-07-15 20:05:20.100 ,6,0,0.,24.0,0.,24.0,0.,24.0,0.,24.0
1979-07-15 20:05:44.100 ,7,1,0.,24.0,0.,24.0,0.,24.0,0.,24.0
1979-07-15 20:06:08.100 ,7,0,0.,24.0,0.,24.0,0.,24.0,0.,24.0
1979-07-15 20:06:32.100 ,7,1,0.,24.0,0.,24.0,0.,24.0,0.,24.0
1979-07-15 20:06:56.100 ,7,0,0.,24.0,0.,24.0,0.,24.0,0.,24.0
1979-07-15 20:07:20.100 ,6,1,0.,24.0,0.,24.0,0.,24.0,0.,24.0
1979-07-15 20:07:44.100 ,6,0,0.,24.0,0.,24.0,0.,24.0,0.,24.0
1979-07-15 20:08:08.100 ,5,1,0.,24.0,0.,24.0,0.,24.0,0.,24.0
1979-07-15 20:08:32.100 ,5,0,0.,24.0,0.,24.0,0.,24.0,0.,24.0
1979-07-15 20:08:56.100 ,4,1,0.,24.0,0.,24.0,0.,24.0,0.,24.0
1979-07-15 20:09:20.100 ,4,0,0.,24.0,0.,24.0,0.,24.0,0.,24.0
1979-07-15 20:09:44.100 ,3,1,0.,24.0,0.,24.0,0.,24.0,0.,24.0
1979-07-15 20:10:08.100 ,3,0,0.,24.0,0.,24.0,0.,24.0,0.,24.0
1979-07-15 20:10:32.100 ,2,1,0.,24.0,0.,24.0,0.,24.0,0.,24.0
1979-07-15 20:10:56.100 ,2,0,0.,24.0,0.,24.0,0.,24.0,0.,24.0
1979-07-15 20:11:20.100 ,1,1,0.,24.0,0.,24.0,0.,24.0,0.,24.0
1979-07-15 20:11:44.100 ,1,0,0.,24.0,0.,24.0,0.,24.0,0.,24.0
1979-07-15 20:12:08.100 ,0,1,0.,24.0,0.,24.0,0.,24.0,0.,24.0
1979-07-15 20:12:32.100 ,0,0,0.,24.0,0.,24.0,0.,24.0,0.,24.0
1979-07-15 20:12:56.100 ,0,1,0.,24.0,0.,24.0,0.,24.0,0.,24.0
1979-07-15 20:13:20.100 ,0,0,0.,24.0,0.,24.0,0.,24.0,0.,24.0
1979-07-15 20:13:44.100 ,1,1,0.,24.0,0.,24.0,0.,24.0,0.,24.0
1979-07-15 20:14:08.100 ,1,0,0.,24.0,0.,24.0,0.,24.0,0.,24.0
1979-07-15 20:14:32.100 ,2,1,0.,24.0,0.,24.0,0.,24.0,0.,24.0
1979-07-15 20:14:56.100 ,2,0,0.,24.0,0.,24.0,0.,24.0,0.,24.0
1979-07-15 20:15:20.100 ,3,1,0.,24.0,0.,24.0,0.,24.0,0.,24.0
1979-07-15 20:15:44.100 ,3,0,0.,24.0,0.,24.0,0.,24.0,0.,24.0
1979-07-15 20:16:08.100 ,4,1,0.,24.0,0.,24.0,0.,24.0,0.,24.0
1979-07-15 20:16:32.100 ,4,0,0.,24.0,0.,24.0,0.,24.0,0.,24.0
1979-07-15 20:16:56.100 ,5,1,0.,24.0,0.,24.0,0.,24.0,0.,24.0
1979-07-15 20:17:20.100 ,5,0,0.,24.0,0.,24.0,0.,24.0,0.,24.0
1979-07-15 20:17:44.100 ,6,1,0.,24.0,0.,24.0,0.,24.0,0.,24.0
1979-07-15 20:18:32.100 ,7,0,0.,24.0,0.,24.0,0.,24.0,0.,24.0
1979-07-15 20:18:56.100 ,7,0,0.,24.0,0.,24.0,0.,24.0,0.,24.0
1979-07-15 20:19:20.100 ,5,1,0.,24.0,0.,24.0,0.,24.0,0.,24.0
1979-07-15 20:19:44.100 ,1,1,0.,24.0,0.,24.0,0.,24.0,0.,24.0
1979-07-15 20:20:08.100 ,2,1,0.,24.0,0.,24.0,0.,24.0,0.,24.0
1979-07-15 20:20:32.100 ,6,1,0.,24.0,0.,24.0,0.,24.0,0.,24.0
1979-07-15 20:20:56.100 ,5,1,0.,24.0,0.,24.0,0.,24.0,0.,24.0
1979-07-15 20:21:20.100 ,1,1,0.,24.0,0.,24.0,0.,24.0,0.,24.0
1979-07-15 20:21:44.100 ,2,1,0.,24.0,0.,24.0,0.,24.0,0.,24.0
1979-07-15 20:22:08.100 ,6,1,0.,24.0,0.,24.0,0.,24.0,0.,24.0
1979-07-15 20:22:32.100 ,5,1,0.,24.0,0.,24.0,0.,24.0,0.,24.0
1979-07-15 20:22:56.100 ,1,1,0.,24.0,0.,24.0,0.,24.0,0.,24.0
1979-07-15 20:23:20.100 ,2,1,0.,24.0,0.,24.0,0.,24.0,0.,24.0
1979-07-15 20:23:44.100 ,6,1,0.,24.0,0.,24.0,0.,24.0,0.,24.0
1979-07-15 20:24:08.100 ,5,1,0.,24.0,0.,24.0,0.,24.0,0.,24.0
1979-07-15 20:24:32.100 ,1,1,0.,24.0,0.,24.0,0.,24.0,0.,24.0
1979-07-15 20:24:56.100 ,2,1,0.,24.0,0.,24.0,0.,24.0,0.,24.0
1979-07-15 20:25:20.100 ,6,1,0.,24.0,0.,24.0,0.,24.0,0.,24.0
1979-07-15 20:25:44.100 ,5,1,0.,24.0,0.,24.0,0.,24.0,0.,24.0
1979-07-15 20:26:08.100 ,1,1,0.,24.0,0.,24.0,0.,24.0,0.,24.0
1979-07-15 20:26:32.100 ,2,1,0.,24.0,0.,24.0,0.,24.0,0.,24.0
1979-07-15 20:26:56.100 ,6,1,0.,24.0,0.,24.0,0.,24.0,0.,24.0
1979-07-15 20:27:20.100 ,5,1,0.,24.0,0.,24.0,0.,24.0,0.,24.0
1979-07-15 20:27:44.100 ,1,1,0.,24.0,0.,24.0,0.,24.0,0.,24.0
1979-07-15 20:28:56.100 ,5,1,0.,24.0,0.,24.0,0.,24.0,0.,24.0
1979-07-15 20:29:20.100 ,1,1,0.,24.0,0.,24.0,0.,24.0,0.,24.0
1979-07-15 20:29:44.100 ,0,0,0.,24.0,0.,24.0,0.,24.0,0.,24.0
1979-07-15 20:30:08.100 ,0,0,0.,24.0,0.,24.0,0.,24.0,0.,24.0
1979-07-15 20:30:08.100 ,0,0,0.,24.0,0.,24.0,0.,24.0,0.,24.0
1979-07-15 20:30:32.100 ,5,1,0.,24.0,0.,24.0,0.,24.0,0.,24.0
1979-07-15 20:30:56.100 ,5,0,0.,24.0,0.,24.0,0.,24.0,0.,24.0
1979-07-15 20:32:08.100 ,0,0,0.,24.0,0.,24.0,0.,24.0,0.,24.0
1979-07-15 20:32:32.100 ,0,0,0.,24.0,0.,24.0,0.,24.0,0.,24.0
1979-07-15 20:32:56.100 ,2,1,0.,24.0,0.,24.0,0.,24.0,0.,24.0
1979-07-15 20:33:20.100 ,2,0,0.,24.0,0.,24.0,0.,24.0,0.,24.0
1979-07-15 20:33:44.100 ,1,1,0.,24.0,0.,24.0,0.,24.0,0.,24.0
1979-07-15 20:34:08.100 ,1,0,0.,24.0,0.,24.0,0.,24.0,0.,24.0
1979-07-15 20:34:32.100 ,0,1,0.,24.0,0.,24.0,0.,24.0,0.,24.0
1979-07-15 20:34:56.100 ,0,0,0.,24.0,0.,24.0,0.,24.0,0.,24.0
1979-07-15 20:35:20.100 ,0,1,0.,24.0,0.,24.0,0.,24.0,0.,24.0
1979-07-15 20:35:44.100 ,0,0,0.,24.0,0.,24.0,0.,24.0,0.,24.0
1979-07-15 20:36:08.100 ,1,1,0.,24.0,0.,24.0,0.,24.0,0.,24.0
1979-07-15 20:36:32.100 ,1,0,0.,24.0,0.,24.0,0.,24.0,0.,24.0
1979-07-15 20:36:56.100 ,2,1,0.,24.0,0.,24.0,0.,24.0,0.,24.0
1979-07-15 20:37:20.100 ,2,0,0.,24.0,0.,24.0,0.,24.0,0.,24.0
1979-07-15 20:37:44.100 ,3,1,0.,24.0,0.,24.0,0.,24.0,0.,24.0
1979-07-15 20:38:08.100 ,3,0,0.,24.0,0.,24.0,0.,24.0,0.,24.0
1979-07-15 20:38:32.100 ,4,1,0.,24.0,0.,24.0,0.,24.0,0.,24.0
1979-07-15 20:38:56.100 ,4,0,0.,24.0,0.,24.0,0.,24.0,0.,24.0
1979-07-15 20:39:20.100 ,5,1,0.,24.0,0.,24.0,0.,24.0,0.,24.0
1979-07-15 20:39:44.100 ,5,0,0.,24.0,0.,24.0,0.,24.0,0.,24.0
1979-07-15 20:40:08.100 ,6,1,0.,24.0,0.,24.0,0.,24.0,0.,24.0